Date,TemperatureHighF,TemperatureAvgF,TemperatureLowF,DewpointHighF,DewpointAvgF,DewpointLowF,HumidityHigh,HumidityAvg,HumidityLow,PressureMaxIn,PressureMinIn,WindSpeedMaxMPH,WindSpeedAvgMPH,GustSpeedMaxMPH,PrecipitationSumIn
2013-1-1,33,21,2,29,14,0,96,74,60,29.47,29.21,18,3,20,0.00
2013-1-2,21,6,-3,18,2,-6,94,77,55,29.74,29.41,18,3,20,0.00
2013-1-3,14,0,-10,8,-4,-13,90,78,50,29.76,29.50,6,1,6,0.00
2013-1-4,34,19,-1,28,13,-6,94,78,65,29.50,29.31,14,2,17,0.00
2013-1-5,34,28,15,28,19,11,85,66,47,29.79,29.35,26,4,26,0.00
2013-1-6,33,23,14,29,21,14,97,88,78,29.74,29.46,7,0,8,0.01
2013-1-7,34,23,8,29,18,4,98,78,43,29.91,29.49,20,3,21,0.00
2013-1-8,41,18,4,28,15,4,96,85,51,29.92,29.78,6,0,6,0.04
2013-1-9,43,24,11,33,21,11,97,86,56,29.93,29.50,16,2,19,0.06
2013-1-10,41,36,26,35,25,23,88,65,50,30.10,29.56,23,4,28,0.14
2013-1-11,36,28,20,33,26,18,100,90,65,30.09,29.72,6,1,7,0.12
2013-1-12,40,36,33,40,36,33,100,100,98,29.75,29.66,6,0,6,0.04
2013-1-13,43,38,34,43,38,35,100,100,100,29.69,29.51,6,1,8,0.01
2013-1-14,55,42,32,53,36,26,100,84,49,29.83,29.41,17,2,18,0.01
2013-1-15,36,30,27,32,26,21,97,83,61,29.88,29.78,5,0,5,0.00
2013-1-16,30,29,26,31,28,23,100,94,79,29.79,29.34,6,1,6,0.00
2013-1-17,36,24,13,35,20,4,100,84,56,29.68,29.34,18,2,22,0.00
2013-1-18,22,10,0,14,3,-6,92,66,37,29.90,29.63,17,2,17,0.00
2013-1-19,37,27,8,28,20,4,89,74,54,29.82,29.34,14,2,15,0.03
2013-1-20,43,33,20,33,20,0,88,60,38,29.48,29.05,28,5,31,0.25
2013-1-21,24,17,6,18,7,0,91,63,39,29.60,29.32,11,2,14,0.00
2013-1-22,20,13,0,18,8,-6,96,78,45,29.59,29.31,20,3,22,0.00
2013-1-23,7,-1,-11,0,-9,-13,86,65,38,29.69,29.57,20,3,20,0.00
2013-1-24,13,-2,-16,4,-9,-13,88,61,33,29.82,29.63,22,2,23,0.00
2013-1-25,18,7,-5,4,-3,-6,82,57,30,29.88,29.61,11,2,14,0.00
2013-1-26,18,10,1,8,1,-6,88,64,32,29.79,29.58,20,3,22,0.00
2013-1-27,23,11,2,8,-1,-6,89,58,25,30.02,29.79,21,3,21,0.00
2013-1-28,17,10,2,16,6,-6,94,80,53,30.02,29.58,6,1,6,0.00
2013-1-29,31,23,17,31,21,16,99,92,82,29.75,29.59,8,2,9,0.00
2013-1-30,49,40,31,49,40,31,100,100,99,29.64,28.93,13,2,13,0.42
2013-1-31,54,38,24,54,31,11,100,76,43,29.09,28.42,35,5,37,0.69
2013-2-1,26,21,15,18,9,8,76,56,47,29.61,29.08,20,4,25,0.00
2013-2-2,22,17,8,18,11,4,92,74,51,29.73,29.57,14,2,15,0.00
2013-2-3,27,19,13,21,14,11,95,80,55,29.58,29.27,8,2,9,0.00
2013-2-4,26,19,13,21,8,0,94,60,30,29.44,29.25,25,3,26,0.00
2013-2-5,28,14,3,11,4,0,81,59,33,29.58,29.44,8,2,8,0.00
2013-2-6,34,23,13,28,13,-6,89,62,39,29.87,29.43,16,4,18,0.00
2013-2-7,23,14,7,4,-1,-6,63,45,32,30.09,29.86,15,4,15,0.00
2013-2-8,23,20,17,18,13,0,95,76,36,30.00,29.39,17,3,17,0.00
2013-2-9,20,15,6,16,8,0,94,71,53,29.85,29.38,32,9,32,0.01
2013-2-10,34,10,-9,16,3,-6,92,71,27,30.02,29.84,5,0,5,0.06
2013-2-11,30,19,5,31,17,4,100,90,77,29.87,29.16,6,0,6,0.00
2013-2-12,40,34,27,33,29,23,100,81,64,29.41,29.16,18,3,21,0.20
2013-2-13,39,30,21,31,22,18,94,71,46,29.41,29.30,11,1,11,0.04
2013-2-14,39,29,24,26,22,18,88,73,43,29.52,29.28,14,1,16,0.02
2013-2-15,47,33,23,31,24,18,89,72,41,29.51,29.43,20,2,21,0.01
2013-2-16,33,28,22,28,19,4,96,69,39,29.53,29.39,19,4,22,0.00
2013-2-17,22,16,12,8,4,0,65,54,45,29.39,29.08,31,9,34,0.01
2013-2-18,28,17,10,4,0,-6,63,46,22,29.67,29.31,22,4,24,0.00
2013-2-19,39,24,8,32,15,0,98,65,35,29.71,29.13,15,2,15,0.09
2013-2-20,32,28,22,32,22,14,99,78,57,29.30,29.11,16,2,20,0.01
2013-2-21,25,21,15,21,14,11,88,72,57,29.86,29.30,23,5,24,0.00
2013-2-22,38,30,24,28,22,18,91,69,49,29.97,29.83,14,2,15,0.04
2013-2-23,34,32,28,32,27,21,99,82,68,29.83,29.50,11,1,13,0.02
2013-2-24,37,33,30,37,33,31,100,99,97,29.50,29.33,5,0,5,0.29
2013-2-25,37,32,28,37,32,28,100,98,85,29.79,29.48,8,1,9,0.09
2013-2-26,40,34,29,39,32,29,100,92,81,29.90,29.72,9,1,10,0.00
2013-2-27,36,34,31,33,32,28,98,92,77,29.73,29.21,16,4,17,0.19
2013-2-28,43,36,31,43,35,31,100,97,85,29.21,29.12,9,1,9,0.02
2013-3-1,39,33,27,33,29,26,100,85,64,29.29,29.13,17,4,19,0.00
2013-3-2,36,32,26,28,26,23,90,78,63,29.28,29.23,26,6,26,0.00
2013-3-3,36,29,25,29,25,23,91,80,69,29.26,29.17,16,4,17,0.02
2013-3-4,33,29,25,26,23,21,84,76,65,29.40,29.21,14,4,18,0.00
2013-3-5,42,32,25,29,25,21,90,76,56,29.65,29.40,20,3,21,0.01
2013-3-6,38,34,30,31,28,23,92,76,62,29.77,29.64,25,5,30,0.00
2013-3-7,38,34,30,29,25,23,90,68,59,29.75,29.65,18,6,20,0.00
2013-3-8,43,33,26,29,26,21,96,74,44,29.83,29.63,19,5,23,0.05
2013-3-9,54,34,18,35,22,16,100,69,23,29.90,29.80,11,1,12,0.00
2013-3-10,55,38,21,36,25,18,98,66,28,29.95,29.77,14,2,15,0.00
2013-3-11,46,41,34,37,31,28,83,69,55,29.81,29.63,14,3,20,0.00
2013-3-12,50,45,41,49,43,38,100,94,78,29.64,29.26,12,2,12,0.96
2013-3-13,44,38,27,41,33,24,100,82,55,29.38,29.30,15,2,15,0.00
2013-3-14,32,27,18,29,17,8,98,66,45,29.43,29.26,25,5,25,0.01
2013-3-15,35,25,14,29,15,4,94,63,35,29.44,29.15,18,4,22,0.00
2013-3-16,31,26,19,23,15,11,86,62,41,29.45,29.26,16,3,16,0.01
2013-3-17,28,23,14,23,9,0,91,55,33,29.88,29.44,29,5,30,0.01
2013-3-18,34,23,7,18,7,0,90,51,25,30.00,29.75,12,1,15,0.00
2013-3-19,32,28,26,29,26,21,97,90,70,29.75,29.28,16,2,17,0.00
2013-3-20,34,28,24,29,24,18,97,82,59,29.30,29.23,18,3,20,0.12
2013-3-21,40,27,12,28,16,11,99,65,31,29.33,29.17,14,2,14,0.12
2013-3-22,37,27,16,28,19,14,96,72,44,29.29,29.18,16,2,16,0.04
2013-3-23,39,32,24,28,21,18,89,65,43,29.35,29.21,23,4,23,0.00
2013-3-24,41,34,26,26,23,21,86,63,45,29.42,29.34,23,4,23,0.00
2013-3-25,44,32,21,31,24,18,96,72,46,29.37,29.12,17,2,17,0.00
2013-3-26,46,37,28,31,24,18,89,60,33,29.37,29.16,19,4,22,0.00
2013-3-27,48,37,23,36,26,21,98,69,39,29.49,29.34,28,4,28,0.00
2013-3-28,48,38,32,39,32,28,99,80,46,29.61,29.48,16,2,21,0.00
2013-3-29,49,39,29,40,32,28,97,77,48,29.64,29.57,17,2,20,0.00
2013-3-30,51,39,27,38,24,14,100,61,22,29.67,29.60,21,3,24,0.00
2013-3-31,55,40,22,38,25,18,97,61,26,29.68,29.33,23,4,26,0.06
2013-4-1,48,38,30,46,32,14,100,81,45,29.34,29.09,19,2,20,0.37
2013-4-2,35,30,25,14,11,8,54,44,31,29.44,29.32,22,5,28,0.00
2013-4-3,41,32,25,16,11,4,57,39,21,29.72,29.43,26,4,28,0.00
2013-4-4,52,38,25,24,15,8,76,40,21,29.83,29.51,19,3,21,0.00
2013-4-5,52,39,29,33,24,16,81,57,29,29.51,29.29,22,5,24,0.00
2013-4-6,41,31,24,16,8,4,54,37,19,29.86,29.49,25,6,28,0.01
2013-4-7,56,41,27,36,22,11,69,47,29,29.85,29.46,27,7,32,0.02
2013-4-8,59,46,36,38,33,26,89,61,31,29.69,29.49,20,4,20,0.00
2013-4-9,58,47,42,49,41,32,98,80,49,29.62,29.45,15,3,16,0.18
2013-4-10,50,44,41,47,43,40,100,96,85,29.57,29.47,10,2,10,0.62
2013-4-11,44,41,37,43,28,16,100,64,33,29.75,29.46,18,4,20,0.01
2013-4-12,37,33,30,32,27,16,93,80,42,29.74,29.43,19,3,20,0.05
2013-4-13,53,40,32,43,35,31,99,84,48,29.49,29.35,11,1,12,0.47
2013-4-14,48,39,30,39,33,28,100,78,47,29.80,29.47,20,2,23,0.01
2013-4-15,60,42,26,40,32,26,100,70,34,29.95,29.79,12,2,14,0.00
2013-4-16,60,50,37,52,41,31,98,74,53,29.90,29.55,24,5,28,0.05
2013-4-17,58,49,36,51,34,24,98,60,31,29.93,29.61,25,5,25,0.01
2013-4-18,61,47,29,38,31,26,96,58,35,29.99,29.64,24,5,26,0.00
2013-4-19,72,62,52,60,53,38,91,76,55,29.64,29.09,30,8,39,0.17
2013-4-20,54,45,36,51,32,16,97,65,34,29.82,29.22,23,4,24,0.20
2013-4-21,49,38,29,21,17,14,68,42,24,30.25,29.81,21,5,21,0.00
2013-4-22,54,39,24,31,21,16,91,53,23,30.32,30.14,19,2,20,0.00
2013-4-23,41,37,28,37,32,26,93,81,70,30.16,29.75,12,2,13,0.00
2013-4-24,75,55,39,46,40,36,90,61,26,29.75,29.28,23,4,25,0.00
2013-4-25,61,50,35,48,31,23,72,49,27,29.87,29.28,28,5,28,0.00
2013-4-26,57,44,28,37,30,24,94,60,33,30.00,29.87,14,2,15,0.00
2013-4-27,65,48,31,41,31,18,98,58,19,30.02,29.84,12,2,14,0.00
2013-4-28,73,53,31,39,32,28,96,52,21,29.92,29.71,16,2,18,0.00
2013-4-29,68,56,42,46,37,35,88,51,30,29.82,29.70,18,4,21,0.00
2013-4-30,74,61,51,41,33,24,53,36,24,29.91,29.79,14,2,15,0.00
2013-5-1,77,59,39,41,30,18,89,41,12,30.03,29.91,13,2,14,0.00
2013-5-2,80,58,40,46,37,24,92,49,21,30.06,29.85,22,3,22,0.00
2013-5-3,69,55,37,42,36,26,91,52,31,30.11,29.91,14,2,15,0.00
2013-5-4,75,58,39,48,38,28,99,56,22,29.95,29.76,13,2,14,0.00
2013-5-5,75,57,36,41,34,29,91,47,19,29.89,29.72,14,2,15,0.00
2013-5-6,78,58,38,46,32,11,96,48,8,29.83,29.63,13,2,14,0.00
2013-5-7,84,62,40,49,39,31,95,50,16,29.75,29.58,12,2,13,0.00
2013-5-8,76,61,47,64,55,45,99,82,43,29.77,29.62,18,2,23,0.40
2013-5-9,69,61,56,64,59,54,100,94,63,29.62,29.46,12,1,13,0.28
2013-5-10,75,62,53,68,57,53,100,86,53,29.56,29.44,13,2,14,0.00
2013-5-11,69,61,57,62,60,57,100,95,80,29.44,29.21,17,3,20,0.21
2013-5-12,64,55,44,58,44,24,100,70,32,29.38,29.17,17,2,19,0.01
2013-5-13,50,44,40,36,30,26,81,55,43,29.63,29.37,18,4,22,0.00
2013-5-14,58,45,34,43,31,24,97,61,29,29.67,29.55,23,3,24,0.00
2013-5-15,62,46,29,50,39,28,100,79,30,29.62,29.23,23,3,24,0.13
2013-5-16,76,59,45,62,43,32,100,65,21,29.44,29.18,28,3,31,0.01
2013-5-17,64,54,44,42,38,33,85,59,33,29.81,29.44,20,4,23,0.00
2013-5-18,75,55,37,47,38,32,100,62,22,29.90,29.76,12,2,12,0.00
2013-5-19,70,55,43,54,48,42,99,80,46,29.91,29.75,18,3,23,0.20
2013-5-20,71,62,54,68,60,54,100,93,73,29.75,29.54,10,2,11,0.03
2013-5-21,80,63,52,72,60,50,100,90,60,29.69,29.41,16,3,19,0.70
2013-5-22,74,59,51,68,57,50,100,94,75,29.55,29.41,13,2,15,0.26
2013-5-23,76,65,56,71,62,55,100,91,73,29.46,29.32,19,4,20,0.00
2013-5-24,67,55,45,64,53,42,100,92,80,29.51,29.22,22,5,25,0.50
2013-5-25,45,42,35,44,41,33,99,94,87,29.50,29.40,29,8,32,1.02
2013-5-26,52,44,37,42,39,36,98,83,62,29.66,29.35,24,6,27,0.11
2013-5-27,68,51,35,54,37,32,100,67,27,29.77,29.65,22,3,24,0.00
2013-5-28,73,56,36,48,41,35,100,64,25,29.85,29.69,12,2,12,0.00
2013-5-29,60,56,52,60,55,47,100,95,75,29.73,29.56,5,1,7,0.14
2013-5-30,88,71,58,76,62,58,100,79,41,29.66,29.57,11,2,14,0.00
2013-5-31,92,74,58,70,62,56,100,71,31,29.70,29.49,19,2,20,0.00
2013-6-1,92,76,61,70,64,57,100,70,33,29.54,29.39,20,2,20,0.00
2013-6-2,85,70,63,84,67,63,100,92,59,29.42,29.22,26,2,28,1.02
2013-6-3,77,67,52,70,57,48,100,76,40,29.44,29.34,19,4,21,0.01
2013-6-4,66,56,44,50,43,39,94,64,42,29.69,29.43,25,4,27,0.00
2013-6-5,72,58,43,54,42,35,100,62,27,29.80,29.66,14,2,16,0.00
2013-6-6,74,62,51,56,48,39,97,63,34,29.78,29.65,16,2,16,0.05
2013-6-7,57,52,51,56,52,49,100,97,93,29.68,29.47,14,2,14,0.76
2013-6-8,70,60,52,64,56,52,100,89,66,29.61,29.33,13,2,15,0.30
2013-6-9,77,65,55,62,55,49,100,73,39,29.78,29.61,18,2,18,0.00
2013-6-10,73,59,49,63,55,49,100,88,52,29.82,29.60,9,1,10,0.20
2013-6-11,59,56,54,59,56,53,100,99,96,29.60,29.18,10,1,16,1.04
2013-6-12,67,59,52,56,54,50,100,84,59,29.43,29.18,26,5,27,0.02
2013-6-13,63,56,50,59,54,50,100,95,77,29.43,29.30,10,2,10,0.12
2013-6-14,77,63,52,66,53,43,100,75,30,29.41,29.28,20,3,20,0.01
2013-6-15,76,63,48,56,47,38,100,63,29,29.53,29.41,21,3,22,0.00
2013-6-16,72,59,46,61,54,45,100,86,53,29.53,29.29,12,2,16,0.04
2013-6-17,79,64,52,71,59,52,100,86,46,29.51,29.36,18,2,18,0.03
2013-6-18,62,58,52,62,57,52,100,96,85,29.58,29.49,10,2,11,0.12
2013-6-19,72,59,47,62,48,40,100,72,33,29.77,29.56,14,2,17,0.00
2013-6-20,80,60,42,54,46,38,100,66,24,29.87,29.75,12,2,12,0.00
2013-6-21,84,66,47,59,52,46,100,67,30,29.84,29.76,14,2,16,0.00
2013-6-22,83,68,54,66,60,53,99,79,48,29.82,29.66,12,2,19,0.04
2013-6-23,86,70,63,76,68,63,100,93,66,29.72,29.52,17,2,18,0.52
2013-6-24,91,73,64,81,68,60,100,88,48,29.59,29.48,25,2,25,0.08
2013-6-25,88,73,64,77,68,64,100,88,47,29.54,29.33,18,2,21,0.57
2013-6-26,73,68,64,73,68,64,100,100,93,29.43,29.34,7,1,8,0.46
2013-6-27,82,71,64,75,68,64,100,92,69,29.43,29.32,10,2,11,0.00
2013-6-28,80,67,59,76,65,59,100,94,77,29.34,29.04,16,2,16,1.11
2013-6-29,82,72,65,74,67,62,100,85,60,29.27,29.09,20,2,22,0.14
2013-6-30,86,73,63,72,66,63,100,81,55,29.41,29.27,11,2,12,0.00
2013-7-5,92,79,71,78,72,68,100,84,48,29.66,29.62,13,2,16,0.14
2013-7-6,88,77,67,80,70,64,100,81,47,29.67,29.57,14,2,14,0.04
2013-7-7,90,74,63,74,69,64,100,85,55,29.64,29.48,7,1,8,0.05
2013-7-8,82,72,69,80,71,69,100,98,76,29.65,29.52,14,2,14,0.39
2013-7-9,84,73,66,78,69,66,100,88,63,29.69,29.60,13,2,13,0.01
2013-7-10,78,72,68,77,70,67,100,96,88,29.63,29.35,11,2,11,0.77
2013-7-11,82,73,63,76,67,60,100,84,50,29.60,29.33,16,3,18,0.01
2013-7-12,86,70,57,66,60,56,100,76,41,29.80,29.59,8,2,8,0.00
2013-7-13,81,70,59,69,64,60,100,83,56,29.90,29.80,14,2,16,0.00
2013-7-14,88,75,67,73,70,67,100,85,56,29.91,29.79,10,2,11,0.00
2013-7-15,92,78,67,77,68,63,100,75,41,29.83,29.69,17,2,17,0.00
2013-7-16,90,77,65,72,67,64,100,74,47,29.79,29.72,9,2,9,0.00
2013-7-17,94,79,65,73,69,64,100,75,41,29.80,29.56,9,2,9,0.00
2013-7-18,92,76,70,74,71,69,100,86,49,29.63,29.52,9,2,9,0.02
2013-7-19,92,80,70,77,72,69,100,79,49,29.54,29.26,9,4,9,0.00
2013-7-22,78,73,63,69,64,57,89,75,70,29.64,29.51,9,3,9,0.00
2013-7-24,78,67,54,72,57,47,100,72,59,29.64,29.26,9,4,9,0.00
2013-7-25,75,61,48,60,52,46,97,74,50,29.72,29.61,9,2,9,0.00
2013-7-26,74,64,58,63,59,57,97,86,67,29.70,29.57,9,2,9,0.00
2013-7-27,84,68,54,66,60,54,100,80,45,29.67,29.54,9,2,9,0.00
2013-7-28,81,67,59,69,63,59,100,89,59,29.62,29.54,8,1,8,0.00
2013-8-2,80,77,69,74,60,53,100,59,39,29.43,29.36,16,3,16,0.00
2013-8-6,80,69,56,57,52,47,91,59,35,29.76,29.65,10,2,10,0.01
2013-8-7,78,65,53,63,56,51,99,76,48,29.76,29.62,15,3,15,0.00
2013-8-8,82,72,67,69,65,60,92,80,64,29.64,29.52,15,5,15,0.00
2013-8-14,71,63,51,60,53,50,96,71,57,29.55,29.31,18,4,23,0.01
2013-8-15,74,60,47,59,51,47,100,78,45,29.70,29.55,12,2,13,0.00
2013-8-16,78,62,50,63,54,49,100,80,43,29.80,29.68,15,2,18,0.00
2013-8-17,80,64,54,64,56,53,100,81,40,29.89,29.79,14,2,14,0.00
2013-8-18,79,64,53,64,58,52,100,85,58,29.88,29.67,6,1,6,0.00
2013-8-19,83,67,56,65,59,56,100,80,42,29.68,29.52,13,2,13,0.00
2013-8-20,83,64,58,67,60,58,100,89,48,29.68,29.59,10,2,12,0.00
2013-8-27,86,77,69,68,66,63,92,69,51,29.52,29.36,10,2,13,0.00
2013-8-28,88,72,65,69,65,60,98,81,44,29.54,29.37,20,2,20,0.04
2013-8-29,76,68,62,70,63,60,98,86,68,29.61,29.51,10,2,11,0.01
2013-8-30,86,72,63,68,64,60,96,79,46,29.57,29.32,11,2,12,0.00
2013-8-31,79,72,68,74,70,65,99,95,83,29.36,29.29,7,1,7,0.30
2013-9-1,86,75,70,76,70,66,100,87,57,29.41,29.32,8,1,8,0.00
2013-9-2,82,73,68,78,70,66,98,94,76,29.40,29.23,8,1,9,0.50
2013-9-3,75,68,62,74,64,57,100,88,65,29.36,29.25,10,2,10,0.00
2013-9-4,78,68,58,64,57,52,99,73,44,29.46,29.36,13,2,15,0.00
2013-9-5,66,59,43,60,48,35,98,71,34,29.72,29.40,23,4,24,0.11
2013-9-6,71,53,40,52,42,36,98,73,36,29.81,29.62,11,1,13,0.00
2013-9-7,68,56,45,56,50,44,98,82,53,29.62,29.39,11,2,13,0.00
2013-9-8,62,56,43,57,46,37,98,74,42,29.65,29.32,34,4,34,0.03
2013-9-9,70,53,39,51,45,38,98,76,43,29.78,29.63,12,2,12,0.00
2013-9-10,74,61,49,73,59,47,100,96,91,29.66,29.54,7,0,7,0.32
2013-9-11,92,77,68,81,70,66,100,83,47,29.61,29.44,28,2,37,0.52
2013-9-12,82,71,66,76,69,62,100,94,71,29.52,29.21,14,2,14,0.98
2013-9-13,67,63,55,67,61,52,100,95,87,29.37,29.16,18,3,18,0.37
2013-9-14,62,56,49,53,51,48,98,83,63,29.62,29.36,18,3,18,0.00
2013-9-15,71,56,46,56,49,45,100,82,42,29.71,29.57,13,2,15,0.00
2013-9-16,61,53,39,59,48,35,99,83,56,29.85,29.55,21,3,22,0.03
2013-9-17,68,47,34,48,40,33,99,79,43,30.01,29.85,7,1,7,0.00
2013-9-18,76,53,41,54,46,40,100,82,42,29.88,29.66,8,1,8,0.00
2013-9-19,80,56,45,57,49,44,100,82,33,29.72,29.57,6,1,6,0.00
2013-9-20,80,60,48,60,53,48,100,82,45,29.69,29.50,9,1,9,0.00
2013-9-21,73,62,50,63,56,50,99,83,48,29.54,29.18,23,4,23,0.01
2013-9-22,67,58,46,63,53,42,99,84,62,29.43,29.11,15,3,16,0.45
2013-9-23,54,47,42,44,40,38,96,77,58,29.58,29.42,20,4,21,0.00
2013-9-24,63,52,46,47,41,37,86,66,40,29.57,29.41,24,4,24,0.00
2013-9-25,64,54,44,54,47,43,99,78,55,29.57,29.45,18,3,18,0.00
2013-9-26,65,52,41,52,45,40,99,79,54,29.72,29.56,17,3,17,0.00
2013-9-27,72,55,46,54,50,45,98,84,51,29.85,29.71,6,1,6,0.00
2013-9-28,76,56,47,60,50,47,100,85,41,29.93,29.80,6,1,7,0.00
2013-9-29,73,55,46,59,50,45,100,86,49,29.83,29.63,9,1,9,0.00
2013-9-30,74,54,45,56,48,45,100,85,42,29.68,29.51,8,1,8,0.00
2013-10-1,77,57,46,57,51,45,100,86,48,29.57,29.40,8,1,8,0.00
2013-10-2,77,61,52,64,56,52,100,85,50,29.53,29.38,14,2,14,0.00
2013-10-3,77,58,48,63,51,44,100,80,35,29.66,29.52,7,1,7,0.00
2013-10-4,66,54,45,56,50,44,100,88,63,29.68,29.58,8,1,8,0.00
2013-10-5,63,58,56,56,53,50,93,82,66,29.70,29.61,7,1,7,0.00
2013-10-6,57,52,48,54,46,41,98,83,61,29.78,29.67,12,2,12,0.17
2013-10-7,70,58,51,66,57,50,100,95,85,29.68,29.21,29,2,35,0.60
2013-10-8,61,51,38,53,42,33,100,77,37,29.95,29.46,16,2,18,0.00
2013-10-9,66,45,35,48,39,35,100,84,43,30.06,29.91,10,1,10,0.00
2013-10-10,63,47,38,50,43,37,100,88,52,29.92,29.74,9,1,9,0.00
2013-10-11,68,51,43,56,47,42,99,87,58,29.76,29.67,5,1,5,0.00
2013-10-12,61,50,40,56,47,40,100,91,77,29.95,29.75,13,1,13,0.00
2013-10-13,65,51,42,53,46,41,100,83,53,30.00,29.90,13,1,13,0.00
2013-10-14,63,53,42,53,48,41,98,85,63,29.93,29.77,10,1,10,0.00
2013-10-15,65,58,53,56,53,51,97,86,70,29.83,29.70,7,1,7,0.00
2013-10-16,66,56,49,54,50,48,97,84,61,29.70,29.41,11,1,12,0.00
2013-10-17,70,57,50,59,49,44,98,77,42,29.42,29.25,12,1,12,0.11
2013-10-18,62,54,45,56,48,36,100,82,56,29.45,29.15,13,2,17,0.50
2013-10-19,63,50,36,51,41,35,99,76,49,29.51,29.25,13,2,15,0.00
2013-10-20,57,50,37,48,38,32,96,68,40,29.55,29.20,19,3,21,0.03
2013-10-21,63,46,33,47,39,33,99,80,45,29.65,29.46,15,1,15,0.00
2013-10-22,56,49,35,48,42,31,90,77,62,29.47,29.26,14,3,15,0.00
2013-10-23,52,40,32,39,34,31,97,78,49,29.33,29.15,8,1,8,0.00
2013-10-24,47,41,30,37,32,28,96,71,47,29.41,29.20,23,3,23,0.01
2013-10-25,45,37,31,40,30,24,99,77,44,29.66,29.41,18,2,21,0.00
2013-10-26,47,39,28,36,30,26,94,73,45,29.67,29.36,18,2,19,0.00
2013-10-27,52,41,29,38,32,26,91,71,40,29.58,29.31,15,2,21,0.00
2013-10-28,51,37,28,37,29,23,94,74,51,29.90,29.57,23,2,25,0.00
2013-10-29,48,31,20,35,23,16,98,73,30,30.01,29.89,8,1,8,0.00
2013-10-30,49,35,26,37,28,21,94,78,54,29.90,29.73,12,1,12,0.00
2013-10-31,57,41,30,56,40,29,98,96,91,29.78,29.24,15,2,16,0.21
2013-11-1,67,60,52,62,53,41,97,79,47,29.24,28.89,18,6,26,0.59
2013-11-2,59,48,38,50,41,32,99,79,53,29.38,29.16,18,2,23,0.00
2013-11-3,41,35,27,33,20,14,74,55,35,29.99,29.38,20,7,23,0.00
2013-11-4,40,29,20,29,18,14,94,65,36,30.22,29.99,12,2,14,0.00
2013-11-5,47,33,22,33,25,18,96,74,46,30.23,30.01,14,2,16,0.00
2013-11-6,58,45,31,44,37,28,94,75,58,30.01,29.49,19,4,19,0.00
2013-11-7,54,48,36,51,43,23,96,82,59,29.50,29.25,15,4,17,0.07
2013-11-8,40,33,26,35,27,23,94,78,57,29.62,29.38,12,1,12,0.03
2013-11-9,43,36,31,32,24,21,88,59,42,29.72,29.52,14,2,17,0.00
2013-11-10,45,37,32,42,36,31,99,95,88,29.52,29.26,13,1,14,0.16
2013-11-11,45,39,34,37,30,26,93,71,49,29.62,29.39,14,3,14,0.01
2013-11-12,42,30,26,36,20,14,90,66,52,29.75,29.39,19,5,24,0.03
2013-11-13,33,26,20,21,14,8,75,58,36,29.83,29.60,22,4,22,0.00
2013-11-14,47,32,25,29,25,21,93,73,49,29.62,29.56,17,1,18,0.00
2013-11-15,54,33,24,35,26,23,98,77,33,29.75,29.61,5,0,6,0.00
2013-11-16,61,39,28,37,28,23,93,70,28,29.85,29.72,6,1,6,0.00
2013-11-17,50,37,27,49,36,26,99,94,87,29.84,29.34,9,1,11,0.12
2013-11-18,60,51,41,54,44,31,98,77,45,29.34,28.99,25,4,25,0.49
2013-11-19,44,34,29,32,20,16,70,55,49,29.86,29.19,24,6,28,0.01
2013-11-20,39,28,20,18,16,14,82,61,34,30.18,29.86,14,3,16,0.00
2013-11-21,42,28,16,28,18,14,95,67,32,30.19,29.88,8,1,8,0.01
2013-11-22,34,32,29,35,29,21,99,88,65,29.89,29.34,6,1,6,0.10
2013-11-23,40,32,23,39,26,16,99,77,43,29.49,29.30,16,3,21,0.05
2013-11-24,23,18,14,16,6,-6,72,52,40,29.74,29.33,32,6,38,0.03
2013-11-25,28,19,5,16,5,-6,74,52,29,29.90,29.72,14,2,14,0.00
2013-11-26,34,30,26,31,25,14,95,82,56,29.83,29.59,12,1,12,0.02
2013-11-27,44,36,32,43,36,31,100,97,91,29.59,28.85,15,2,17,0.78
2013-11-28,33,23,11,32,16,8,93,72,47,29.95,29.01,13,1,15,0.00
2013-11-29,26,15,8,18,9,4,94,75,40,30.29,29.95,16,1,16,0.00
2013-11-30,28,18,4,16,10,0,93,70,47,30.34,29.92,12,1,12,0.00
2013-12-1,37,31,28,31,25,14,93,77,55,29.92,29.59,12,1,14,0.00
2013-12-2,37,33,30,33,31,29,96,91,82,29.60,29.46,7,1,7,0.00
2013-12-3,37,33,31,33,32,29,97,94,87,29.52,29.45,8,1,9,0.00
2013-12-4,42,32,25,32,26,23,97,79,51,29.73,29.51,11,1,11,0.00
2013-12-5,38,34,25,38,32,24,99,93,83,29.74,29.43,10,1,10,0.00
2013-12-6,42,38,34,42,37,31,100,94,80,29.70,29.42,8,1,9,0.41
2013-12-7,34,30,23,32,22,14,95,71,49,29.98,29.64,16,2,20,0.01
2013-12-8,30,25,21,18,14,11,87,62,48,30.11,29.97,11,2,11,0.00
2013-12-9,29,27,23,28,22,14,98,82,55,30.01,29.41,20,2,23,0.00
2013-12-10,34,28,22,29,22,11,98,77,51,29.48,29.30,13,2,15,0.00
2013-12-11,28,24,18,21,14,11,88,65,46,29.68,29.47,19,4,19,0.00
2013-12-12,21,14,5,14,6,0,88,67,37,29.82,29.51,15,3,15,0.00
2013-12-13,21,14,2,16,9,-6,87,71,61,29.97,29.43,17,4,17,0.00
2013-12-14,11,5,-2,8,-1,-6,89,70,50,30.15,29.71,11,2,11,0.00
2013-12-15,26,20,11,24,18,8,94,87,75,29.72,29.05,14,2,17,0.00
2013-12-16,22,16,0,18,8,-6,94,68,44,29.77,29.23,19,3,19,0.00
2013-12-17,10,0,-12,8,-3,-13,87,80,72,29.84,29.56,9,1,10,0.00
2013-12-18,30,16,7,21,13,4,95,84,63,29.57,29.46,6,1,6,0.08
2013-12-19,36,26,19,29,22,16,94,84,64,29.62,29.46,15,1,15,0.01
2013-12-20,40,33,30,35,31,28,98,91,74,29.64,29.45,6,0,6,0.15
2013-12-21,48,37,34,42,36,33,99,95,80,29.46,29.38,9,1,9,0.22
2013-12-22,43,39,35,43,39,35,100,99,98,29.54,29.22,12,1,14,0.09
2013-12-23,38,36,34,38,36,31,100,99,87,29.69,29.52,9,1,10,0.14
2013-12-24,34,26,12,31,18,8,86,70,48,29.80,29.61,20,3,20,0.00
2013-12-25,20,11,4,11,4,0,77,66,42,30.07,29.80,15,3,17,0.00
2013-12-26,27,21,16,24,17,8,95,84,60,29.97,29.63,12,1,13,0.00
2013-12-27,34,24,16,29,19,14,98,83,57,29.76,29.69,13,1,16,0.01
2013-12-28,34,27,16,31,24,14,97,89,76,29.70,29.52,8,1,9,0.02
2013-12-29,33,29,23,57,29,23,100,97,94,29.55,29.13,6,0,6,0.01
2013-12-30,36,25,4,35,21,0,100,85,64,29.75,29.13,21,3,21,0.02
2013-12-31,16,7,1,8,3,0,90,79,58,29.75,29.56,6,1,7,0.00
2014-1-1,20,10,3,16,6,0,95,78,52,29.94,29.66,17,2,20,0.00
2014-1-2,6,3,1,4,2,0,90,86,75,29.94,29.47,12,5,14,0.00